Time,TemperatureF,DewpointF,PressureIn,WindDirection,WindDirectionDegrees,WindSpeedMPH,WindSpeedGustMPH,Humidity,HourlyPrecipIn,Conditions,Clouds,dailyrainin,SoftwareType,DateUTC
2013-06-29 00:04:00,69.5,60.9,29.70,WSW,253,0.0,0.0,74,0.00,,---,0.00,VWS V14.00,2013-06-29 05:04:00,
2013-06-29 00:09:00,69.2,60.6,29.70,WSW,253,0.0,0.0,74,0.00,,---,0.00,VWS V14.00,2013-06-29 05:09:00,
2013-06-29 00:15:00,69.1,60.5,29.70,WSW,255,0.0,0.0,74,0.00,,---,0.00,VWS V14.00,2013-06-29 05:15:00,
2013-06-29 00:20:00,69.0,60.8,29.70,WSW,255,0.0,0.0,75,0.00,,---,0.00,VWS V14.00,2013-06-29 05:20:00,
2013-06-29 00:25:00,68.6,60.7,29.70,WSW,255,0.0,0.0,76,0.00,,---,0.00,VWS V14.00,2013-06-29 05:25:00,
2013-06-29 00:30:00,67.8,60.7,29.69,WSW,255,0.0,0.0,78,0.00,,---,0.00,VWS V14.00,2013-06-29 05:30:00,
2013-06-29 00:35:00,67.1,60.4,29.69,WSW,255,0.0,0.0,79,0.00,,---,0.00,VWS V14.00,2013-06-29 05:35:00,
2013-06-29 00:40:00,66.4,60.0,29.69,WSW,255,0.0,0.0,80,0.00,,---,0.00,VWS V14.00,2013-06-29 05:40:00,
2013-06-29 00:45:00,66.8,60.1,29.69,WSW,255,0.0,0.0,79,0.00,,---,0.00,VWS V14.00,2013-06-29 05:45:00,
2013-06-29 00:50:00,67.1,60.4,29.69,WSW,255,0.0,0.0,79,0.00,,---,0.00,VWS V14.00,2013-06-29 05:50:00,
2013-06-29 00:55:00,67.0,59.9,29.69,WSW,255,1.0,1.0,78,0.00,,---,0.00,VWS V14.00,2013-06-29 05:55:00,
2013-06-29 01:00:00,67.7,60.2,29.69,WSW,255,2.0,2.0,77,0.00,,---,0.00,VWS V14.00,2013-06-29 06:00:00,
2013-06-29 01:06:00,68.3,60.1,29.69,WSW,252,1.0,2.0,75,0.00,,---,0.00,VWS V14.00,2013-06-29 06:06:00,
2013-06-29 01:11:00,68.7,60.1,29.69,WSW,250,2.0,3.0,74,0.00,,---,0.00,VWS V14.00,2013-06-29 06:11:00,
2013-06-29 01:16:00,68.8,60.2,29.69,WSW,248,2.0,3.0,74,0.00,,---,0.00,VWS V14.00,2013-06-29 06:16:00,
2013-06-29 01:21:00,68.7,60.1,29.69,WSW,246,1.0,2.0,74,0.00,,---,0.00,VWS V14.00,2013-06-29 06:21:00,
2013-06-29 01:26:00,68.4,60.2,29.68,WSW,240,1.0,2.0,75,0.00,,---,0.00,VWS V14.00,2013-06-29 06:26:00,
2013-06-29 01:31:00,68.4,60.2,29.68,WSW,253,2.0,2.0,75,0.00,,---,0.00,VWS V14.00,2013-06-29 06:31:00,
2013-06-29 01:36:00,68.4,60.2,29.68,WSW,250,1.0,2.0,75,0.00,,---,0.00,VWS V14.00,2013-06-29 06:36:00,
2013-06-29 01:41:00,68.3,60.1,29.68,WSW,252,1.0,2.0,75,0.00,,---,0.00,VWS V14.00,2013-06-29 06:41:00,
2013-06-29 01:46:00,68.1,59.9,29.68,West,264,1.0,2.0,75,0.00,,---,0.00,VWS V14.00,2013-06-29 06:46:00,
2013-06-29 01:51:00,68.0,59.8,29.68,WSW,255,1.0,1.0,75,0.00,,---,0.00,VWS V14.00,2013-06-29 06:51:00,
2013-06-29 01:56:00,67.9,60.1,29.68,WSW,253,0.0,1.0,76,0.00,,---,0.00,VWS V14.00,2013-06-29 06:56:00,
2013-06-29 02:01:00,67.6,60.1,29.68,WSW,255,0.0,1.0,77,0.00,,---,0.00,VWS V14.00,2013-06-29 07:01:00,
2013-06-29 02:07:00,67.5,60.0,29.67,WSW,255,0.0,1.0,77,0.00,,---,0.00,VWS V14.00,2013-06-29 07:07:00,
2013-06-29 02:12:00,67.4,60.0,29.67,WSW,255,1.0,1.0,77,0.00,,---,0.00,VWS V14.00,2013-06-29 07:12:00,
2013-06-29 02:17:00,67.3,59.8,29.67,WSW,255,0.0,1.0,77,0.00,,---,0.00,VWS V14.00,2013-06-29 07:17:00,
2013-06-29 02:22:00,67.1,60.0,29.67,WSW,255,0.0,0.0,78,0.00,,---,0.00,VWS V14.00,2013-06-29 07:22:00,
2013-06-29 02:27:00,66.9,60.2,29.67,WSW,255,0.0,1.0,79,0.00,,---,0.00,VWS V14.00,2013-06-29 07:27:00,
2013-06-29 02:32:00,66.5,59.8,29.67,WSW,255,0.0,1.0,79,0.00,,---,0.00,VWS V14.00,2013-06-29 07:32:00,
2013-06-29 02:37:00,66.4,59.7,29.67,WSW,255,0.0,0.0,79,0.00,,---,0.00,VWS V14.00,2013-06-29 07:37:00,
2013-06-29 02:42:00,66.3,60.0,29.66,WSW,255,0.0,0.0,80,0.00,,---,0.00,VWS V14.00,2013-06-29 07:42:00,
2013-06-29 02:47:00,66.0,60.0,29.66,WSW,255,0.0,0.0,81,0.00,,---,0.00,VWS V14.00,2013-06-29 07:47:00,
2013-06-29 02:52:00,65.3,59.7,29.66,WSW,255,0.0,0.0,82,0.00,,---,0.00,VWS V14.00,2013-06-29 07:52:00,
2013-06-29 02:58:00,64.9,59.6,29.66,WSW,255,0.0,0.0,83,0.00,,---,0.00,VWS V14.00,2013-06-29 07:58:00,
2013-06-29 03:03:00,64.7,59.4,29.66,WSW,255,0.0,1.0,83,0.00,,---,0.00,VWS V14.00,2013-06-29 08:03:00,
2013-06-29 03:08:00,65.0,59.7,29.66,WSW,255,0.0,1.0,83,0.00,,---,0.00,VWS V14.00,2013-06-29 08:08:00,
2013-06-29 03:13:00,65.4,59.8,29.66,WSW,255,0.0,1.0,82,0.00,,---,0.00,VWS V14.00,2013-06-29 08:13:00,
2013-06-29 03:18:00,65.5,59.5,29.66,WSW,255,0.0,0.0,81,0.00,,---,0.00,VWS V14.00,2013-06-29 08:18:00,
2013-06-29 03:23:00,65.5,59.5,29.66,WSW,255,0.0,0.0,81,0.00,,---,0.00,VWS V14.00,2013-06-29 08:23:00,
2013-06-29 03:28:00,65.6,59.6,29.66,WSW,255,0.0,0.0,81,0.00,,---,0.00,VWS V14.00,2013-06-29 08:28:00,
2013-06-29 03:33:00,65.6,59.6,29.66,WSW,255,0.0,1.0,81,0.00,,---,0.00,VWS V14.00,2013-06-29 08:33:00,
2013-06-29 03:38:00,65.4,59.8,29.66,WSW,255,0.0,0.0,82,0.00,,---,0.00,VWS V14.00,2013-06-29 08:38:00,
2013-06-29 03:43:00,65.3,59.7,29.66,WSW,255,1.0,1.0,82,0.00,,---,0.00,VWS V14.00,2013-06-29 08:43:00,
2013-06-29 03:49:00,65.1,59.8,29.66,WSW,255,1.0,1.0,83,0.00,,---,0.00,VWS V14.00,2013-06-29 08:49:00,
2013-06-29 03:54:00,65.1,59.8,29.66,WSW,255,0.0,1.0,83,0.00,,---,0.00,VWS V14.00,2013-06-29 08:54:00,
2013-06-29 03:59:00,64.9,59.6,29.66,WSW,255,0.0,0.0,83,0.00,,---,0.00,VWS V14.00,2013-06-29 08:59:00,
2013-06-29 04:04:00,64.5,59.6,29.66,WSW,255,0.0,0.0,84,0.00,,---,0.00,VWS V14.00,2013-06-29 09:04:00,
2013-06-29 04:09:00,64.2,59.6,29.67,WSW,255,0.0,0.0,85,0.00,,---,0.00,VWS V14.00,2013-06-29 09:09:00,
2013-06-29 04:14:00,63.8,59.5,29.67,WSW,255,0.0,0.0,86,0.00,,---,0.00,VWS V14.00,2013-06-29 09:14:00,
2013-06-29 04:19:00,63.5,59.6,29.67,WSW,255,0.0,0.0,87,0.00,,---,0.00,VWS V14.00,2013-06-29 09:19:00,
2013-06-29 04:24:00,63.3,59.4,29.67,WSW,255,0.0,1.0,87,0.00,,---,0.00,VWS V14.00,2013-06-29 09:24:00,
2013-06-29 04:29:00,63.4,59.5,29.67,WSW,255,0.0,1.0,87,0.00,,---,0.00,VWS V14.00,2013-06-29 09:29:00,
2013-06-29 04:34:00,63.5,59.6,29.67,WSW,255,0.0,1.0,87,0.00,,---,0.00,VWS V14.00,2013-06-29 09:34:00,
2013-06-29 04:39:00,63.6,59.3,29.67,WSW,255,0.0,0.0,86,0.00,,---,0.00,VWS V14.00,2013-06-29 09:39:00,
2013-06-29 04:44:00,63.5,59.6,29.67,WSW,255,0.0,0.0,87,0.00,,---,0.00,VWS V14.00,2013-06-29 09:44:00,
2013-06-29 04:49:00,63.3,59.4,29.67,WSW,255,0.0,0.0,87,0.00,,---,0.00,VWS V14.00,2013-06-29 09:49:00,
2013-06-29 04:54:00,62.9,59.3,29.67,WSW,255,0.0,0.0,88,0.00,,---,0.00,VWS V14.00,2013-06-29 09:54:00,
2013-06-29 04:59:00,62.7,59.4,29.67,WSW,255,0.0,0.0,89,0.00,,---,0.00,VWS V14.00,2013-06-29 09:59:00,
2013-06-29 05:04:00,62.4,59.1,29.67,WSW,255,0.0,0.0,89,0.00,,---,0.00,VWS V14.00,2013-06-29 10:04:00,
2013-06-29 05:09:00,62.5,59.5,29.67,WSW,255,0.0,0.0,90,0.00,,---,0.00,VWS V14.00,2013-06-29 10:09:00,
2013-06-29 05:14:00,62.9,59.6,29.67,WSW,255,0.0,0.0,89,0.00,,---,0.00,VWS V14.00,2013-06-29 10:14:00,
2013-06-29 05:19:00,63.2,59.6,29.67,WSW,255,0.0,0.0,88,0.00,,---,0.00,VWS V14.00,2013-06-29 10:19:00,
2013-06-29 05:24:00,63.2,59.6,29.67,WSW,255,0.0,0.0,88,0.00,,---,0.00,VWS V14.00,2013-06-29 10:24:00,
2013-06-29 05:29:00,63.0,59.4,29.67,WSW,255,0.0,1.0,88,0.00,,---,0.00,VWS V14.00,2013-06-29 10:29:00,
2013-06-29 05:34:00,62.5,58.9,29.67,WSW,255,0.0,0.0,88,0.00,,---,0.00,VWS V14.00,2013-06-29 10:34:00,
2013-06-29 05:39:00,62.1,58.8,29.67,WSW,255,0.0,0.0,89,0.00,,---,0.00,VWS V14.00,2013-06-29 10:39:00,
2013-06-29 05:44:00,61.7,58.7,29.68,WSW,255,0.0,0.0,90,0.00,,---,0.00,VWS V14.00,2013-06-29 10:44:00,
2013-06-29 05:49:00,61.6,59.0,29.67,WSW,255,0.0,0.0,91,0.00,,---,0.00,VWS V14.00,2013-06-29 10:49:00,
2013-06-29 05:54:00,61.8,59.2,29.67,WSW,255,0.0,0.0,91,0.00,,---,0.00,VWS V14.00,2013-06-29 10:54:00,
2013-06-29 05:59:00,62.3,59.6,29.67,WSW,255,0.0,0.0,91,0.00,,---,0.00,VWS V14.00,2013-06-29 10:59:00,
2013-06-29 06:05:00,63.2,59.9,29.67,WSW,255,0.0,0.0,89,0.00,,---,0.00,VWS V14.00,2013-06-29 11:05:00,
2013-06-29 06:10:00,63.4,60.1,29.67,WSW,255,0.0,0.0,89,0.00,,---,0.00,VWS V14.00,2013-06-29 11:10:00,
2013-06-29 06:15:00,63.3,60.0,29.67,WSW,255,0.0,0.0,89,0.00,,---,0.00,VWS V14.00,2013-06-29 11:15:00,
2013-06-29 06:20:00,63.5,60.2,29.67,WSW,255,0.0,0.0,89,0.00,,---,0.00,VWS V14.00,2013-06-29 11:20:00,
2013-06-29 06:25:00,64.1,60.5,29.68,WSW,255,0.0,1.0,88,0.00,,---,0.00,VWS V14.00,2013-06-29 11:25:00,
2013-06-29 06:30:00,64.8,60.5,29.67,West,263,0.0,1.0,86,0.00,,---,0.00,VWS V14.00,2013-06-29 11:30:00,
2013-06-29 06:35:00,65.4,61.1,29.67,WSW,252,0.0,1.0,86,0.00,,---,0.00,VWS V14.00,2013-06-29 11:35:00,
2013-06-29 06:41:00,65.8,61.2,29.67,WSW,253,0.0,0.0,85,0.00,,---,0.00,VWS V14.00,2013-06-29 11:41:00,
2013-06-29 06:46:00,66.2,61.6,29.67,WSW,250,0.0,1.0,85,0.00,,---,0.00,VWS V14.00,2013-06-29 11:46:00,
2013-06-29 06:51:00,66.6,62.3,29.67,SW,231,0.0,2.0,86,0.00,,---,0.00,VWS V14.00,2013-06-29 11:51:00,
2013-06-29 06:56:00,67.1,62.8,29.68,SW,225,1.0,1.0,86,0.00,,---,0.00,VWS V14.00,2013-06-29 11:56:00,
2013-06-29 07:01:00,67.5,62.2,29.68,WSW,242,3.0,4.0,83,0.00,,---,0.00,VWS V14.00,2013-06-29 12:01:00,
2013-06-29 07:06:00,67.8,62.5,29.68,SW,233,3.0,4.0,83,0.00,,---,0.00,VWS V14.00,2013-06-29 12:06:00,
2013-06-29 07:11:00,68.2,62.5,29.67,WSW,240,2.0,3.0,82,0.00,,---,0.00,VWS V14.00,2013-06-29 12:11:00,
2013-06-29 07:16:00,68.6,62.9,29.67,WSW,245,3.0,4.0,82,0.00,,---,0.00,VWS V14.00,2013-06-29 12:16:00,
2013-06-29 07:21:00,69.0,62.9,29.68,SW,236,2.0,4.0,81,0.00,,---,0.00,VWS V14.00,2013-06-29 12:21:00,
2013-06-29 07:27:00,69.4,63.0,29.68,West,260,3.0,3.0,80,0.00,,---,0.00,VWS V14.00,2013-06-29 12:27:00,
2013-06-29 07:32:00,69.9,63.1,29.68,West,270,1.0,3.0,79,0.00,,---,0.00,VWS V14.00,2013-06-29 12:32:00,
2013-06-29 07:37:00,70.2,63.4,29.68,WSW,250,3.0,6.0,79,0.00,,---,0.00,VWS V14.00,2013-06-29 12:37:00,
2013-06-29 07:42:00,70.3,63.8,29.68,SW,236,4.0,5.0,80,0.00,,---,0.00,VWS V14.00,2013-06-29 12:42:00,
2013-06-29 07:47:00,70.9,64.1,29.67,WSW,253,4.0,6.0,79,0.00,,---,0.00,VWS V14.00,2013-06-29 12:47:00,
2013-06-29 07:52:00,71.7,64.5,29.67,WNW,296,2.0,6.0,78,0.00,,---,0.00,VWS V14.00,2013-06-29 12:52:00,
2013-06-29 07:57:00,72.2,64.6,29.67,WSW,244,3.0,5.0,77,0.00,,---,0.00,VWS V14.00,2013-06-29 12:57:00,
2013-06-29 08:02:00,73.0,64.6,29.68,West,262,4.0,6.0,75,0.00,,---,0.00,VWS V14.00,2013-06-29 13:02:00,
2013-06-29 08:08:00,73.5,64.3,29.67,WNW,287,5.0,8.0,73,0.00,,---,0.00,VWS V14.00,2013-06-29 13:08:00,
2013-06-29 08:13:00,74.2,65.0,29.67,WSW,252,2.0,7.0,73,0.00,,---,0.00,VWS V14.00,2013-06-29 13:13:00,
2013-06-29 08:18:00,74.8,64.0,29.68,NNW,334,6.0,7.0,69,0.00,,---,0.00,VWS V14.00,2013-06-29 13:18:00,
2013-06-29 08:23:00,74.9,63.6,29.68,WNW,285,3.0,10.0,68,0.00,,---,0.00,VWS V14.00,2013-06-29 13:23:00,
2013-06-29 08:28:00,75.1,63.0,29.68,SW,218,6.0,12.0,66,0.00,,---,0.00,VWS V14.00,2013-06-29 13:28:00,
2013-06-29 08:33:00,75.4,63.7,29.68,NNW,330,5.0,9.0,67,0.00,,---,0.00,VWS V14.00,2013-06-29 13:33:00,
2013-06-29 08:38:00,75.6,63.5,29.67,WNW,291,3.0,7.0,66,0.00,,---,0.00,VWS V14.00,2013-06-29 13:38:00,
2013-06-29 08:43:00,76.4,63.8,29.67,West,274,4.0,6.0,65,0.00,,---,0.00,VWS V14.00,2013-06-29 13:43:00,
2013-06-29 08:48:00,76.6,64.0,29.67,West,271,2.0,7.0,65,0.00,,---,0.00,VWS V14.00,2013-06-29 13:48:00,
2013-06-29 08:54:00,76.9,64.2,29.68,West,278,4.0,8.0,65,0.00,,---,0.00,VWS V14.00,2013-06-29 13:54:00,
2013-06-29 08:59:00,76.9,64.2,29.67,NW,314,3.0,8.0,65,0.00,,---,0.00,VWS V14.00,2013-06-29 13:59:00,
2013-06-29 09:04:00,77.6,64.0,29.68,WNW,301,5.0,9.0,63,0.00,,---,0.00,VWS V14.00,2013-06-29 14:04:00,
2013-06-29 09:09:00,77.6,64.0,29.67,West,270,6.0,9.0,63,0.00,,---,0.00,VWS V14.00,2013-06-29 14:09:00,
2013-06-29 09:14:00,77.6,64.0,29.67,WSW,256,7.0,10.0,63,0.00,,---,0.00,VWS V14.00,2013-06-29 14:14:00,
2013-06-29 09:19:00,77.9,64.3,29.67,WSW,246,6.0,8.0,63,0.00,,---,0.00,VWS V14.00,2013-06-29 14:19:00,
2013-06-29 09:24:00,78.3,64.2,29.67,West,259,2.0,7.0,62,0.00,,---,0.00,VWS V14.00,2013-06-29 14:24:00,
2013-06-29 09:29:00,78.9,64.8,29.67,West,264,1.0,7.0,62,0.00,,---,0.00,VWS V14.00,2013-06-29 14:29:00,
2013-06-29 09:34:00,78.8,64.2,29.67,NW,309,3.0,9.0,61,0.00,,---,0.00,VWS V14.00,2013-06-29 14:34:00,
2013-06-29 09:39:00,79.0,63.9,29.68,WSW,257,4.0,9.0,60,0.00,,---,0.00,VWS V14.00,2013-06-29 14:39:00,
2013-06-29 09:44:00,79.5,65.3,29.67,West,264,3.0,6.0,62,0.00,,---,0.00,VWS V14.00,2013-06-29 14:44:00,
2013-06-29 09:49:00,79.5,63.9,29.67,West,273,4.0,10.0,59,0.00,,---,0.00,VWS V14.00,2013-06-29 14:49:00,
2013-06-29 09:54:00,79.5,63.0,29.67,WSW,243,7.0,11.0,57,0.00,,---,0.00,VWS V14.00,2013-06-29 14:54:00,
2013-06-29 09:59:00,79.4,64.3,29.67,SW,233,5.0,10.0,60,0.00,,---,0.00,VWS V14.00,2013-06-29 14:59:00,
2013-06-29 10:04:00,79.7,63.1,29.67,NW,314,2.0,9.0,57,0.00,,---,0.00,VWS V14.00,2013-06-29 15:04:00,
2013-06-29 10:09:00,80.0,63.9,29.67,NNW,330,1.0,8.0,58,0.00,,---,0.00,VWS V14.00,2013-06-29 15:09:00,
2013-06-29 10:14:00,80.6,64.5,29.67,NW,325,7.0,10.0,58,0.00,,---,0.00,VWS V14.00,2013-06-29 15:14:00,
2013-06-29 10:19:00,80.8,64.2,29.67,NW,305,6.0,10.0,57,0.00,,---,0.00,VWS V14.00,2013-06-29 15:19:00,
2013-06-29 10:24:00,80.4,64.3,29.67,SW,233,3.0,11.0,58,0.00,,---,0.00,VWS V14.00,2013-06-29 15:24:00,
2013-06-29 10:29:00,81.1,64.9,29.67,North,349,5.0,11.0,58,0.00,,---,0.00,VWS V14.00,2013-06-29 15:29:00,
2013-06-29 10:34:00,81.0,64.3,29.67,West,259,2.0,10.0,57,0.00,,---,0.00,VWS V14.00,2013-06-29 15:34:00,
2013-06-29 10:39:00,81.2,64.0,29.67,NNW,340,6.0,8.0,56,0.00,,---,0.00,VWS V14.00,2013-06-29 15:39:00,
2013-06-29 10:44:00,81.7,65.0,29.67,WNW,288,1.0,12.0,57,0.00,,---,0.00,VWS V14.00,2013-06-29 15:44:00,
2013-06-29 10:49:00,81.7,63.5,29.67,WSW,243,1.0,8.0,54,0.00,,---,0.00,VWS V14.00,2013-06-29 15:49:00,
2013-06-29 10:54:00,82.2,63.9,29.67,WSW,257,8.0,12.0,54,0.00,,---,0.00,VWS V14.00,2013-06-29 15:54:00,
2013-06-29 10:59:00,81.6,63.9,29.67,NW,319,2.0,9.0,55,0.00,,---,0.00,VWS V14.00,2013-06-29 15:59:00,
2013-06-29 11:04:00,81.7,64.0,29.67,West,266,3.0,11.0,55,0.00,,---,0.00,VWS V14.00,2013-06-29 16:04:00,
2013-06-29 11:09:00,81.6,64.9,29.67,NW,307,5.0,9.0,57,0.00,,---,0.00,VWS V14.00,2013-06-29 16:09:00,
2013-06-29 11:14:00,82.4,63.6,29.67,WSW,257,9.0,11.0,53,0.00,,---,0.00,VWS V14.00,2013-06-29 16:14:00,
2013-06-29 11:19:00,82.3,64.0,29.67,WNW,283,5.0,10.0,54,0.00,,---,0.00,VWS V14.00,2013-06-29 16:19:00,
2013-06-29 11:24:00,82.8,62.8,29.67,West,266,2.0,11.0,51,0.00,,---,0.00,VWS V14.00,2013-06-29 16:24:00,
2013-06-29 11:29:00,82.4,63.6,29.67,WSW,245,3.0,13.0,53,0.00,,---,0.00,VWS V14.00,2013-06-29 16:29:00,
2013-06-29 11:34:00,83.0,64.1,29.67,WNW,302,7.0,14.0,53,0.00,,---,0.00,VWS V14.00,2013-06-29 16:34:00,
2013-06-29 11:39:00,82.1,64.3,29.67,West,267,6.0,12.0,55,0.00,,---,0.00,VWS V14.00,2013-06-29 16:39:00,
2013-06-29 11:44:00,82.0,64.8,29.67,West,269,5.0,7.0,56,0.00,,---,0.00,VWS V14.00,2013-06-29 16:44:00,
2013-06-29 11:49:00,82.5,64.2,29.67,West,280,5.0,10.0,54,0.00,,---,0.00,VWS V14.00,2013-06-29 16:49:00,
2013-06-29 11:54:00,81.9,62.6,29.67,West,278,7.0,13.0,52,0.00,,---,0.00,VWS V14.00,2013-06-29 16:54:00,
2013-06-29 11:59:00,81.5,65.8,29.67,WNW,291,3.0,10.0,59,0.00,,---,0.00,VWS V14.00,2013-06-29 16:59:00,
2013-06-29 12:04:00,81.5,63.8,29.67,WSW,243,3.0,12.0,55,0.00,,---,0.00,VWS V14.00,2013-06-29 17:04:00,
2013-06-29 12:09:00,81.4,64.2,29.67,WSW,255,2.0,11.0,56,0.00,,---,0.00,VWS V14.00,2013-06-29 17:09:00,
2013-06-29 12:14:00,80.9,64.8,29.67,WSW,255,10.0,10.0,58,0.00,,---,0.00,VWS V14.00,2013-06-29 17:14:00,
2013-06-29 12:19:00,81.4,64.7,29.67,West,276,6.0,10.0,57,0.00,,---,0.00,VWS V14.00,2013-06-29 17:19:00,
2013-06-29 12:21:00,81.5,63.3,29.67,WSW,257,4.0,14.0,54,0.00,,---,0.00,VWS V14.00,2013-06-29 17:21:00,
2013-06-29 12:26:00,82.9,65.6,29.67,West,268,8.0,9.0,56,0.00,,---,0.00,VWS V14.00,2013-06-29 17:26:00,
2013-06-29 12:32:00,83.2,63.8,29.67,WSW,253,4.0,10.0,52,0.00,,---,0.00,VWS V14.00,2013-06-29 17:32:00,
2013-06-29 12:37:00,83.5,65.1,29.67,SW,221,7.0,12.0,54,0.00,,---,0.00,VWS V14.00,2013-06-29 17:37:00,
2013-06-29 12:42:00,83.6,65.2,29.66,WSW,248,3.0,14.0,54,0.00,,---,0.00,VWS V14.00,2013-06-29 17:42:00,
2013-06-29 12:47:00,84.1,63.5,29.66,WSW,254,9.0,16.0,50,0.00,,---,0.00,VWS V14.00,2013-06-29 17:47:00,
2013-06-29 12:52:00,84.2,64.1,29.67,SW,233,4.0,11.0,51,0.00,,---,0.00,VWS V14.00,2013-06-29 17:52:00,
2013-06-29 12:57:00,83.0,64.1,29.67,SSW,204,5.0,12.0,53,0.00,,---,0.00,VWS V14.00,2013-06-29 17:57:00,
2013-06-29 13:02:00,82.5,63.1,29.67,SW,225,7.0,13.0,52,0.00,,---,0.00,VWS V14.00,2013-06-29 18:02:00,
2013-06-29 13:07:00,82.9,65.1,29.66,WSW,255,5.0,11.0,55,0.00,,---,0.00,VWS V14.00,2013-06-29 18:07:00,
2013-06-29 13:12:00,82.7,63.8,29.66,SW,235,4.0,16.0,53,0.00,,---,0.00,VWS V14.00,2013-06-29 18:12:00,
2013-06-29 13:18:00,83.0,65.2,29.66,WSW,253,2.0,13.0,55,0.00,,---,0.00,VWS V14.00,2013-06-29 18:18:00,
2013-06-29 13:23:00,83.5,64.6,29.67,SW,226,11.0,17.0,53,0.00,,---,0.00,VWS V14.00,2013-06-29 18:23:00,
2013-06-29 13:28:00,83.8,66.4,29.66,South,175,5.0,18.0,56,0.00,,---,0.00,VWS V14.00,2013-06-29 18:28:00,
2013-06-29 13:33:00,83.2,64.3,29.67,WSW,257,9.0,15.0,53,0.00,,---,0.00,VWS V14.00,2013-06-29 18:33:00,
2013-06-29 13:38:00,83.6,63.6,29.66,SW,217,5.0,13.0,51,0.00,,---,0.00,VWS V14.00,2013-06-29 18:38:00,
2013-06-29 13:43:00,83.8,64.3,29.66,WSW,252,9.0,12.0,52,0.00,,---,0.00,VWS V14.00,2013-06-29 18:43:00,
2013-06-29 13:48:00,84.0,63.9,29.66,WNW,298,7.0,20.0,51,0.00,,---,0.00,VWS V14.00,2013-06-29 18:48:00,
2013-06-29 13:53:00,83.4,64.5,29.66,SW,214,3.0,13.0,53,0.00,,---,0.00,VWS V14.00,2013-06-29 18:53:00,
2013-06-29 13:58:00,83.8,62.6,29.66,SW,222,9.0,16.0,49,0.00,,---,0.00,VWS V14.00,2013-06-29 18:58:00,
2013-06-29 14:04:00,84.0,63.4,29.66,WSW,252,4.0,16.0,50,0.00,,---,0.00,VWS V14.00,2013-06-29 19:04:00,
2013-06-29 14:09:00,83.3,62.7,29.66,SW,231,7.0,13.0,50,0.00,,---,0.00,VWS V14.00,2013-06-29 19:09:00,
2013-06-29 14:14:00,84.3,65.3,29.66,WSW,243,14.0,14.0,53,0.00,,---,0.00,VWS V14.00,2013-06-29 19:14:00,
2013-06-29 14:19:00,83.1,63.7,29.66,WSW,243,8.0,14.0,52,0.00,,---,0.00,VWS V14.00,2013-06-29 19:19:00,
2013-06-29 14:24:00,83.7,64.2,29.66,SW,222,10.0,16.0,52,0.00,,---,0.00,VWS V14.00,2013-06-29 19:24:00,
2013-06-29 14:29:00,83.6,63.0,29.66,SW,236,9.0,15.0,50,0.00,,---,0.00,VWS V14.00,2013-06-29 19:29:00,
2013-06-29 14:34:00,83.6,64.1,29.65,SW,234,6.0,11.0,52,0.00,,---,0.00,VWS V14.00,2013-06-29 19:34:00,
2013-06-29 14:39:00,83.8,63.2,29.65,West,267,14.0,14.0,50,0.00,,---,0.00,VWS V14.00,2013-06-29 19:39:00,
2013-06-29 14:44:00,83.5,63.5,29.65,South,190,4.0,14.0,51,0.00,,---,0.00,VWS V14.00,2013-06-29 19:44:00,
2013-06-29 14:49:00,83.0,64.1,29.65,SW,217,6.0,16.0,53,0.00,,---,0.00,VWS V14.00,2013-06-29 19:49:00,
2013-06-29 14:54:00,82.9,63.5,29.65,West,260,7.0,12.0,52,0.00,,---,0.00,VWS V14.00,2013-06-29 19:54:00,
2013-06-29 14:59:00,82.7,63.8,29.65,NNW,328,6.0,16.0,53,0.00,,---,0.00,VWS V14.00,2013-06-29 19:59:00,
2013-06-29 15:04:00,82.4,63.6,29.65,WSW,239,11.0,14.0,53,0.00,,---,0.00,VWS V14.00,2013-06-29 20:04:00,
2013-06-29 15:09:00,82.2,63.4,29.65,West,280,3.0,5.0,53,0.00,,---,0.00,VWS V14.00,2013-06-29 20:09:00,
2013-06-29 15:14:00,83.7,64.8,29.65,WSW,239,10.0,10.0,53,0.00,,---,0.00,VWS V14.00,2013-06-29 20:14:00,
2013-06-29 15:19:00,84.1,65.1,29.65,SW,222,9.0,11.0,53,0.00,,---,0.00,VWS V14.00,2013-06-29 20:19:00,
2013-06-29 15:24:00,84.1,64.0,29.65,WSW,257,3.0,7.0,51,0.00,,---,0.00,VWS V14.00,2013-06-29 20:24:00,
2013-06-29 15:29:00,84.5,63.8,29.65,SW,233,10.0,14.0,50,0.00,,---,0.00,VWS V14.00,2013-06-29 20:29:00,
2013-06-29 15:34:00,84.1,62.9,29.65,WSW,240,8.0,14.0,49,0.00,,---,0.00,VWS V14.00,2013-06-29 20:34:00,
2013-06-29 15:40:00,84.3,63.7,29.64,SW,222,13.0,13.0,50,0.00,,---,0.00,VWS V14.00,2013-06-29 20:40:00,
2013-06-29 15:45:00,84.5,64.4,29.64,WSW,246,6.0,7.0,51,0.00,,---,0.00,VWS V14.00,2013-06-29 20:45:00,
2013-06-29 15:50:00,85.4,65.8,29.65,SSE,158,7.0,10.0,52,0.00,,---,0.00,VWS V14.00,2013-06-29 20:50:00,
2013-06-29 15:55:00,84.9,63.0,29.64,WSW,257,12.0,14.0,48,0.00,,---,0.00,VWS V14.00,2013-06-29 20:55:00,
2013-06-29 16:00:00,84.6,63.3,29.64,SW,226,11.0,13.0,49,0.00,,---,0.00,VWS V14.00,2013-06-29 21:00:00,
2013-06-29 16:05:00,84.6,64.5,29.64,SW,229,15.0,18.0,51,0.00,,---,0.00,VWS V14.00,2013-06-29 21:05:00,
2013-06-29 16:10:00,84.4,63.8,29.64,SE,146,4.0,14.0,50,0.00,,---,0.00,VWS V14.00,2013-06-29 21:10:00,
2013-06-29 16:15:00,84.7,64.0,29.64,WSW,238,9.0,11.0,50,0.00,,---,0.00,VWS V14.00,2013-06-29 21:15:00,
2013-06-29 16:21:00,84.9,65.3,29.64,West,262,8.0,9.0,52,0.00,,---,0.00,VWS V14.00,2013-06-29 21:21:00,
2013-06-29 16:26:00,85.0,64.3,29.63,SW,233,9.0,14.0,50,0.00,,---,0.00,VWS V14.00,2013-06-29 21:26:00,
2013-06-29 16:31:00,84.4,64.9,29.63,WSW,240,7.0,12.0,52,0.00,,---,0.00,VWS V14.00,2013-06-29 21:31:00,
2013-06-29 16:36:00,84.4,63.8,29.63,SW,233,7.0,17.0,50,0.00,,---,0.00,VWS V14.00,2013-06-29 21:36:00,
2013-06-29 16:41:00,84.4,64.9,29.63,SSW,212,12.0,12.0,52,0.00,,---,0.00,VWS V14.00,2013-06-29 21:41:00,
2013-06-29 16:46:00,84.2,63.6,29.63,WSW,250,4.0,11.0,50,0.00,,---,0.00,VWS V14.00,2013-06-29 21:46:00,
2013-06-29 16:51:00,84.3,64.2,29.63,WSW,239,8.0,15.0,51,0.00,,---,0.00,VWS V14.00,2013-06-29 21:51:00,
2013-06-29 16:56:00,84.5,63.8,29.63,WSW,238,4.0,13.0,50,0.00,,---,0.00,VWS V14.00,2013-06-29 21:56:00,
2013-06-29 17:02:00,84.5,63.3,29.62,WSW,243,5.0,12.0,49,0.00,,---,0.00,VWS V14.00,2013-06-29 22:02:00,
2013-06-29 17:07:00,84.4,63.2,29.62,WSW,257,6.0,11.0,49,0.00,,---,0.00,VWS V14.00,2013-06-29 22:07:00,
2013-06-29 17:12:00,84.4,63.8,29.62,West,259,7.0,15.0,50,0.00,,---,0.00,VWS V14.00,2013-06-29 22:12:00,
2013-06-29 17:17:00,84.3,63.1,29.62,SW,232,11.0,14.0,49,0.00,,---,0.00,VWS V14.00,2013-06-29 22:17:00,
2013-06-29 17:22:00,83.7,64.2,29.62,WSW,250,9.0,14.0,52,0.00,,---,0.00,VWS V14.00,2013-06-29 22:22:00,
2013-06-29 17:27:00,83.4,64.5,29.62,WNW,287,6.0,12.0,53,0.00,,---,0.00,VWS V14.00,2013-06-29 22:27:00,
2013-06-29 17:32:00,83.4,64.0,29.62,WSW,237,12.0,12.0,52,0.00,,---,0.00,VWS V14.00,2013-06-29 22:32:00,
2013-06-29 17:37:00,83.2,62.7,29.62,WSW,257,13.0,15.0,50,0.00,,---,0.00,VWS V14.00,2013-06-29 22:37:00,
2013-06-29 17:42:00,82.3,63.5,29.62,SW,231,6.0,11.0,53,0.00,,---,0.00,VWS V14.00,2013-06-29 22:42:00,
2013-06-29 17:47:00,82.5,63.7,29.62,SW,226,3.0,8.0,53,0.00,,---,0.00,VWS V14.00,2013-06-29 22:47:00,
2013-06-29 17:53:00,83.0,63.0,29.62,West,270,6.0,8.0,51,0.00,,---,0.00,VWS V14.00,2013-06-29 22:53:00,
2013-06-29 17:58:00,83.1,64.8,29.62,West,263,5.0,12.0,54,0.00,,---,0.00,VWS V14.00,2013-06-29 22:58:00,
2013-06-29 18:03:00,83.0,64.7,29.62,WSW,243,8.0,12.0,54,0.00,,---,0.00,VWS V14.00,2013-06-29 23:03:00,
2013-06-29 18:08:00,83.3,63.3,29.62,WSW,252,7.0,11.0,51,0.00,,---,0.00,VWS V14.00,2013-06-29 23:08:00,
2013-06-29 18:13:00,83.3,63.9,29.63,SW,235,11.0,12.0,52,0.00,,---,0.00,VWS V14.00,2013-06-29 23:13:00,
2013-06-29 18:18:00,83.4,64.0,29.62,WSW,240,4.0,13.0,52,0.00,,---,0.00,VWS V14.00,2013-06-29 23:18:00,
2013-06-29 18:23:00,83.4,64.0,29.62,East,94,2.0,12.0,52,0.00,,---,0.00,VWS V14.00,2013-06-29 23:23:00,
2013-06-29 18:28:00,83.2,63.8,29.62,WSW,243,3.0,9.0,52,0.00,,---,0.00,VWS V14.00,2013-06-29 23:28:00,
2013-06-29 18:34:00,83.1,63.7,29.62,WSW,238,2.0,14.0,52,0.00,,---,0.00,VWS V14.00,2013-06-29 23:34:00,
2013-06-29 18:39:00,82.9,64.0,29.62,SW,232,6.0,12.0,53,0.00,,---,0.00,VWS V14.00,2013-06-29 23:39:00,
2013-06-29 18:44:00,82.8,64.5,29.62,SW,226,3.0,11.0,54,0.00,,---,0.00,VWS V14.00,2013-06-29 23:44:00,
2013-06-29 18:49:00,82.7,63.8,29.63,West,262,6.0,9.0,53,0.00,,---,0.00,VWS V14.00,2013-06-29 23:49:00,
2013-06-29 18:54:00,82.3,64.0,29.63,West,264,2.0,8.0,54,0.00,,---,0.00,VWS V14.00,2013-06-29 23:54:00,
2013-06-29 18:59:00,81.3,63.6,29.63,West,259,4.0,9.0,55,0.00,,---,0.00,VWS V14.00,2013-06-29 23:59:00,
2013-06-29 19:04:00,80.7,63.0,29.63,West,276,5.0,7.0,55,0.00,,---,0.00,VWS V14.00,2013-06-30 00:04:00,
2013-06-29 19:09:00,80.2,63.6,29.63,WSW,249,2.0,8.0,57,0.00,,---,0.00,VWS V14.00,2013-06-30 00:09:00,
2013-06-29 19:14:00,79.7,64.1,29.64,WSW,242,6.0,6.0,59,0.00,,---,0.00,VWS V14.00,2013-06-30 00:14:00,
2013-06-29 19:19:00,79.2,63.7,29.64,WSW,249,3.0,7.0,59,0.00,,---,0.00,VWS V14.00,2013-06-30 00:19:00,
2013-06-29 19:24:00,78.8,63.8,29.64,WSW,252,4.0,5.0,60,0.00,,---,0.00,VWS V14.00,2013-06-30 00:24:00,
2013-06-29 19:29:00,78.6,64.0,29.64,SW,236,3.0,6.0,61,0.00,,---,0.00,VWS V14.00,2013-06-30 00:29:00,
2013-06-29 19:34:00,78.4,64.3,29.64,West,259,5.0,5.0,62,0.00,,---,0.00,VWS V14.00,2013-06-30 00:34:00,
2013-06-29 19:39:00,77.1,63.5,29.65,WSW,252,7.0,13.0,63,0.01,,---,0.01,VWS V14.00,2013-06-30 00:39:00,
2013-06-29 19:44:00,74.7,62.6,29.65,SSW,193,27.0,32.0,66,0.04,,---,0.04,VWS V14.00,2013-06-30 00:44:00,
2013-06-29 19:57:00,67.0,62.0,29.66,SSW,202,27.0,55.0,84,0.10,,---,0.10,VWS V14.00,2013-06-30 00:57:00,
2013-06-29 20:02:00,65.4,63.3,29.68,West,275,9.0,13.0,93,0.15,,---,0.15,VWS V14.00,2013-06-30 01:02:00,
2013-06-29 20:07:00,65.4,63.6,29.67,NNE,16,3.0,6.0,94,0.15,,---,0.15,VWS V14.00,2013-06-30 01:07:00,
2013-06-29 20:12:00,65.2,63.1,29.67,NNW,338,6.0,12.0,93,0.15,,---,0.15,VWS V14.00,2013-06-30 01:12:00,
2013-06-29 20:17:00,64.7,62.6,29.67,NW,316,5.0,10.0,93,0.15,,---,0.15,VWS V14.00,2013-06-30 01:17:00,
2013-06-29 20:22:00,64.4,62.3,29.67,NW,322,7.0,13.0,93,0.15,,---,0.15,VWS V14.00,2013-06-30 01:22:00,
2013-06-29 20:27:00,64.3,62.2,29.67,NNE,32,5.0,9.0,93,0.15,,---,0.15,VWS V14.00,2013-06-30 01:27:00,
2013-06-29 20:32:00,64.2,62.1,29.68,NNW,335,4.0,10.0,93,0.15,,---,0.15,VWS V14.00,2013-06-30 01:32:00,
2013-06-29 20:38:00,64.1,62.0,29.68,NNE,32,4.0,9.0,93,0.15,,---,0.15,VWS V14.00,2013-06-30 01:38:00,
2013-06-29 20:43:00,64.2,62.1,29.68,NNW,342,5.0,6.0,93,0.14,,---,0.15,VWS V14.00,2013-06-30 01:43:00,
2013-06-29 20:48:00,64.3,62.2,29.68,NNW,347,2.0,5.0,93,0.11,,---,0.15,VWS V14.00,2013-06-30 01:48:00,
2013-06-29 20:53:00,64.0,61.9,29.68,NNW,340,0.0,2.0,93,0.05,,---,0.15,VWS V14.00,2013-06-30 01:53:00,
2013-06-29 20:58:00,63.7,61.6,29.68,NNW,341,0.0,1.0,93,0.00,,---,0.15,VWS V14.00,2013-06-30 01:58:00,
2013-06-29 21:03:00,63.6,61.5,29.68,NNW,342,0.0,1.0,93,0.00,,---,0.15,VWS V14.00,2013-06-30 02:03:00,
2013-06-29 21:08:00,63.1,61.0,29.68,West,260,0.0,1.0,93,0.00,,---,0.15,VWS V14.00,2013-06-30 02:08:00,
2013-06-29 21:14:00,62.8,61.0,29.68,West,262,0.0,0.0,94,0.00,,---,0.15,VWS V14.00,2013-06-30 02:14:00,
2013-06-29 21:19:00,62.8,61.0,29.69,West,262,0.0,1.0,94,0.00,,---,0.15,VWS V14.00,2013-06-30 02:19:00,
2013-06-29 21:24:00,62.9,61.5,29.69,West,262,0.0,1.0,95,0.00,,---,0.15,VWS V14.00,2013-06-30 02:24:00,
2013-06-29 21:29:00,62.9,61.2,29.68,NNW,338,1.0,1.0,94,0.00,,---,0.15,VWS V14.00,2013-06-30 02:29:00,
2013-06-29 21:34:00,63.1,61.7,29.68,NNW,338,0.0,0.0,95,0.00,,---,0.15,VWS V14.00,2013-06-30 02:34:00,
2013-06-29 21:40:00,63.4,61.7,29.69,WNW,290,1.0,1.0,94,0.00,,---,0.15,VWS V14.00,2013-06-30 02:40:00,
2013-06-29 21:45:00,63.3,61.2,29.69,WNW,290,0.0,0.0,93,0.00,,---,0.15,VWS V14.00,2013-06-30 02:45:00,
2013-06-29 21:50:00,63.2,61.2,29.69,WSW,246,2.0,2.0,93,0.00,,---,0.15,VWS V14.00,2013-06-30 02:50:00,
2013-06-29 21:55:00,63.2,61.2,29.69,WSW,245,1.0,1.0,93,0.00,,---,0.15,VWS V14.00,2013-06-30 02:55:00,
2013-06-29 22:00:00,63.2,60.8,29.69,WSW,238,0.0,2.0,92,0.00,,---,0.15,VWS V14.00,2013-06-30 03:00:00,
2013-06-29 22:06:00,63.1,60.7,29.69,WSW,238,0.0,0.0,92,0.00,,---,0.15,VWS V14.00,2013-06-30 03:06:00,
2013-06-29 22:11:00,63.3,60.9,29.69,WSW,249,1.0,2.0,92,0.00,,---,0.15,VWS V14.00,2013-06-30 03:11:00,
2013-06-29 22:16:00,63.5,61.1,29.70,WSW,245,2.0,2.0,92,0.00,,---,0.15,VWS V14.00,2013-06-30 03:16:00,
2013-06-29 22:20:00,63.5,60.8,29.70,SW,221,2.0,3.0,91,0.00,,---,0.15,VWS V14.00,2013-06-30 03:20:00,
2013-06-29 22:25:00,63.6,60.9,29.70,West,266,1.0,2.0,91,0.00,,---,0.15,VWS V14.00,2013-06-30 03:25:00,
2013-06-29 22:30:00,63.7,61.0,29.70,WSW,250,1.0,2.0,91,0.00,,---,0.15,VWS V14.00,2013-06-30 03:30:00,
2013-06-29 22:36:00,63.6,60.9,29.70,WSW,248,0.0,1.0,91,0.00,,---,0.15,VWS V14.00,2013-06-30 03:36:00,
2013-06-29 22:41:00,63.6,60.9,29.70,WSW,248,1.0,1.0,91,0.00,,---,0.15,VWS V14.00,2013-06-30 03:41:00,
2013-06-29 22:46:00,63.6,60.9,29.70,WSW,250,0.0,1.0,91,0.00,,---,0.15,VWS V14.00,2013-06-30 03:46:00,
2013-06-29 22:51:00,63.6,61.2,29.70,WSW,240,0.0,2.0,92,0.00,,---,0.15,VWS V14.00,2013-06-30 03:51:00,
2013-06-29 22:56:00,63.6,61.2,29.70,WSW,240,0.0,1.0,92,0.00,,---,0.15,VWS V14.00,2013-06-30 03:56:00,
2013-06-29 23:01:00,63.6,61.2,29.70,WSW,239,0.0,1.0,92,0.00,,---,0.15,VWS V14.00,2013-06-30 04:01:00,
2013-06-29 23:02:00,63.6,61.2,29.70,WSW,239,0.0,1.0,92,0.00,,---,0.15,VWS V14.00,2013-06-30 04:02:00,
2013-06-29 23:07:00,63.6,61.2,29.70,WSW,238,0.0,0.0,92,0.00,,---,0.15,VWS V14.00,2013-06-30 04:07:00,
2013-06-29 23:13:00,63.6,61.2,29.70,WSW,245,0.0,1.0,92,0.00,,---,0.15,VWS V14.00,2013-06-30 04:13:00,
2013-06-29 23:18:00,63.5,61.1,29.70,WSW,245,0.0,0.0,92,0.00,,---,0.15,VWS V14.00,2013-06-30 04:18:00,
2013-06-29 23:23:00,63.3,60.9,29.70,NW,312,0.0,0.0,92,0.00,,---,0.15,VWS V14.00,2013-06-30 04:23:00,
2013-06-29 23:28:00,63.6,61.5,29.70,NE,49,0.0,1.0,93,0.00,,---,0.15,VWS V14.00,2013-06-30 04:28:00,
2013-06-29 23:33:00,63.6,61.2,29.70,NE,49,0.0,1.0,92,0.00,,---,0.15,VWS V14.00,2013-06-30 04:33:00,
2013-06-29 23:39:00,63.4,61.0,29.70,NE,49,0.0,0.0,92,0.00,,---,0.15,VWS V14.00,2013-06-30 04:39:00,
2013-06-29 23:44:00,63.2,61.2,29.70,NE,49,0.0,1.0,93,0.00,,---,0.15,VWS V14.00,2013-06-30 04:44:00,
2013-06-29 23:49:00,63.0,61.0,29.70,NE,49,0.0,0.0,93,0.00,,---,0.15,VWS V14.00,2013-06-30 04:49:00,
2013-06-29 23:54:00,62.9,60.8,29.70,NE,49,0.0,1.0,93,0.00,,---,0.15,VWS V14.00,2013-06-30 04:54:00,
2013-06-29 23:59:00,62.8,60.8,29.70,NE,49,0.0,0.0,93,0.00,,---,0.15,VWS V14.00,2013-06-30 04:59:00,